OneWeb SL0170

operational
NORAD ID: 48067 Int'l Des: 2021-025 Owner: ONEWEBN Country: UK Constellation: oneweb
LEOCIRCULARPOLARONEWEB_TYPE

Über OneWeb SL0170

Beschreibung wird geladen...

Live-Position

3D-Globus wird geladen...

Nächste Überflüge

Höhenverlauf

Altitude vs Time

uPlot chart will show altitude changes over time

Zweizeiliger Elementsatz

1 48067U 21025AB 25352.31147039 .00000408 00000-0 10817-2 0 9991
2 48067 87.8978 356.1741 0002106 80.3233 279.8134 13.13473027229805
Epoch: 18. Dez. 2025 • Age: 9 hours

Aktueller Status

Höhe 1211.3 km
Geschwindigkeit 7.25 km/s
Subsatellitenpunkt 13.55°N, 18.78°E
Startdatum 25. März 2021
Alter 4.7 years
Typ internet

Technische Details

Klassifizierung Payload
Masse 148.00 kg
Trockenmasse 140.00 kg
Gesamtmasse 148.00 kg
Länge 1.30 m
Durchmesser 1.00 m
Spannweite 5.00 m
Form Trapezoid+2 pan
Hersteller ONEWUS
Bus-Typ ARROW
Phasenstatus In Orbit
Besitzer/Staat ONEWEBN/UK

Große Konstellationen

Loading constellations...